AirNav   Air Wisconsin pilot careers
 
 886 users online  

H07 Highland-Winet Airport
Highland, Illinois, USA

GOING TO HIGHLAND?


FAA INFORMATION EFFECTIVE 21 JUNE 2018

Location

FAA Identifier: H07
Lat/Long: 38-46-45.3000N / 089-38-25.6250W
38-46.755000N / 089-38.427083W
38.7792500 / -89.6404514
(estimated)
Elevation: 537 ft. / 163.7 m (surveyed)
Variation: 01E (1985)
From city: 3 miles NE of HIGHLAND, IL
Time zone: UTC -5 (UTC -6 during Standard Time)
Zip code: 62249

Airport Operations

Airport use: Open to the public
Activation date: 06/1945
Control tower: no
ARTCC: KANSAS CITY CENTER
FSS: SAINT LOUIS FLIGHT SERVICE STATION
NOTAMs facility: STL (NOTAM-D service available)
Attendance: UNATNDD
Pattern altitude: 1337 ft. MSL
Wind indicator: yes
Segmented circle: yes
SEGMENTED CIRCLE AT NORTH END WITH LANDING STRIP INDICATIONS ONLY

Airport Communications

CTAF: 122.9
WX AWOS-A at GRE (13 nm E): 123.05 (618-664-1939)

Nearby radio navigation aids

VOR radial/distance  VOR name  Freq  Var
TOYr076/13.2TROY VORTAC116.0004E
VLAr226/29.2VANDALIA VORTAC114.3004E
ENLr310/31.2CENTRALIA VORTAC115.0004E
CSXr087/33.7CARDINAL VOR/DME116.4500E
STLr096/39.7ST LOUIS VORTAC117.4001E

 
NDB name  Hdg/Dist  Freq  Var  ID
ALPOS109/14.621801WAL .- .-..
CIVIC MEMORIAL110/20.626301WCVM -.-. ...- --
SALEM285/32.540001WSLO ... .-.. ---

Airport Services

Parking: hangars and tiedowns
Powerplant service: NONE
Bottled oxygen: NONE
Bulk oxygen: NONE

Runway Information

Runway 18/36

Dimensions: 2200 x 100 ft. / 671 x 30 m
Surface: turf, in good condition
Runway edge markings: RWY 18/36 DSPLCD THLDS MKD WITH WHITE IN-GROUND MARKINGS; ALSO BOTH SIDES OF RWYS MARKED WITH WHITE IN-GROUND STRIPES.
RUNWAY 18  RUNWAY 36
Traffic pattern: leftright
Displaced threshold: 180 ft.354 ft.
Obstructions: none15 ft. road, 210 ft. from runway, 145 ft. right of centerline, 14:1 slope to clear
RY 36 CLNC SLOPE IS 37:1 TO DSPLCD THLD.

Airport Ownership and Management from official FAA records

Ownership: Privately-owned
Owner: ST LOUIS SOARING ASSN INC
13427 LUBER DR.
HIGHLAND, IL 62249
Phone 618-654-3511
Manager: MAX GIESEKE
12545 AUTUMN LANE.
HIGHLAND, IL 62249
Phone (618) 977-9063

Airport Operational Statistics

Aircraft based on the field: 25
Single engine airplanes: 6
Gliders airplanes: 19
    
Aircraft operations: avg 38/week *
90% local general aviation
10% transient general aviation
* for 12-month period ending 31 August 2015

Additional Remarks

EXTSV GLIDER OPNS ALONG WEST SIDE OF RY; GLIDERS FLY OPPOSITE PTN TO POWERED ACFT.
TO ASSURE FIRM TURF; DO NOT TAXI SOUTH OF ABOVE GND FUEL TANK.
ADMIN BLDG CAN BE ACCESSED BY PUSHING NOS 2&4 TOGETHER; THEN 3
FOR CD CTC STL APCH AT 314-890-1017.

Instrument Procedures

There are no published instrument procedures at H07.

Some nearby airports with instrument procedures:

3K6 - St Louis Metro-East Airport/Shafer Field (8 nm W)
KGRE - Greenville Airport (13 nm E)
KBLV - Scott Air Force Base/MidAmerica Airport (17 nm SW)
KALN - St Louis Regional Airport (20 nm W)
3LF - Litchfield Municipal Airport (23 nm N)
 
Loc | Ops | Rwys | IFR | FBO | Links
Com | Nav | Svcs | Stats | Notes

AirNav Hotels Sweepstakes
 
Area around H07 (Highland-Winet Airport)
 
Road maps at: MapQuest Bing Google
 
Aerial photo
No photo
 
Sectional chart

 
Airport distance calculator
Flying to Highland-Winet Airport? Find the distance to fly.

From to H07

Sunrise and sunset
Times for 23-Jun-2018
 Local
(UTC-5)
 Zulu
(UTC)
Morning civil twilight05:0310:03
Sunrise05:3510:35
Sunset20:2601:26
Evening civil twilight20:5801:58

Current date and time
Zulu (UTC)  23-Jun-2018 23:55:42
Local (UTC-5)  23-Jun-2018 18:55:42
 
METAR
KBLV 
17nm SW 
232256Z AUTO 03005KT 10SM BKN049 OVC060 28/19 A2977 RMK AO2 SLP080 T02760186 $
KALN 
19nm W 
232245Z 30006KT 10SM BKN075 26/19 A2980
K3LF 
23nm N 
232335Z AUTO 00000KT 10SM OVC070 24/19 A2981 RMK AO2 T02350186
KCPS 
27nm SW 
232253Z 03008KT 10SM SCT043 BKN060 27/19 A2978 RMK AO2 SLP081 T02720189 $
KENL 
30nm SE 
232335Z AUTO 27003KT 10SM BKN090 27/19 A2979 RMK AO2 T02680193
KSLO 
32nm E 
232335Z AUTO 31004KT 10SM SCT036 SCT100 27/19 A2980 RMK AO2 T02660187
KSTL 
34nm W 
232251Z 01004KT 10SM FEW032 SCT065 SCT250 26/19 A2980 RMK AO2 SLP080 T02610194
TAF
KBLV 
17nm SW 
231600Z 2316/2422 30009KT 9999 BKN025 OVC160 QNH2977INS BECMG 2408/2409 VRB06KT 9999 SCT020 BKN150 QNH2981INS BECMG 2411/2412 VRB06KT 8000 -SHRA BKN020 QNH2985INS BECMG 2414/2415 16009KT 9000 -SHRA BKN045 QNH2988INS TX30/2320Z TN21/2408Z
NOTAMs
Click for the latest NOTAMs
NOTAMs are issued by the DoD/FAA and will open in a separate window not controlled by AirNav.

 

 
 

Would you like to see your business listed on this page?

 If your business provides an interesting product or service to pilots, flight crews, aircraft, or users of the Highland-Winet Airport, you should consider listing it here.  To start the listing process, click on the button below
 
Add a business
 

Other Pages about Highland-Winet Airport

Update a link
 
Copyright © AirNav, LLC. All rights reserved. Privacy Policy  Contact